Skip Page Navigation
NASA JPL Caltech
NASA Logo - Jet Propulsion Laboratory + View the NASA Portal
+ Center for Near-Earth Object Studies
JPL Home Earth Solar System Stars & Galaxies Technology
JPL Solar System Dynamics
BODIES ORBITS EPHEMERIDES TOOLS PHYSICAL DATA DISCOVERY FAQ SITE MAP
JPL Small-Body Database Browser
Search: [ help ]  
15301 Marutesser (1992 SC2)
Classification: Main-belt Asteroid          SPK-ID: 2015301
Ephemeris | Orbit Diagram | Orbital Elements | Mission Design | Physical Parameters | Discovery Circumstances ]

[ show orbit diagram ]
Orbital Elements at Epoch 2459396.5 (2021-Jul-01.0) TDB
Reference: JPL 29 (heliocentric ecliptic J2000)
 Element Value Uncertainty (1-sigma)   Units 
e .09880149563065889 3.7283e-08  
a 2.866927071987156 1.6401e-08 au
q 2.583670389410799 1.1007e-07 au
i 2.721745951117581 3.7537e-06 deg
node 134.4152316627057 8.6605e-05 deg
peri 257.8471505723783 8.9108e-05 deg
M 311.2376786165312 2.4467e-05 deg
tp 2459636.662539426432
(2022-Feb-26.16253943)
0.00012171 TDB
period 1773.059849091317
4.85
1.5215e-05
4.166e-08
d
yr
n .2030388315343658 1.7423e-09 deg/d
Q 3.150183754563512 1.8021e-08 au
  Orbit Determination Parameters
   # obs. used (total)      1466  
   data-arc span      10516 days (28.79 yr)  
   first obs. used      1992-09-21  
   last obs. used      2021-07-07  
   planetary ephem.      DE441  
   SB-pert. ephem.      SB441-N16  
   condition code      0  
   norm. resid. RMS      .56061  
   source      ORB  
   producer      Otto Matic  
   solution date      2021-Jul-09 13:56:23  

Additional Information
 Earth MOID = 1.59043 au 
 Jupiter MOID = 2.2557 au 
 T_jup = 3.291 
[ show covariance matrix ]

Ephemeris | Orbit Diagram | Orbital Elements | Mission Design | Physical Parameters | Discovery Circumstances ]

Physical Parameter Table
Parameter Symbol Value Units Sigma Reference Notes
absolute magnitude H 14.12   n/a E2021B10  
diameter diameter 4.065 km 0.329 urn:nasa:pds:neowise_diameters_albedos::2.0[mainbelt] (http://adsabs.harvard.edu/abs/2012ApJ...759L...8M)  
geometric albedo albedo 0.245   0.102 urn:nasa:pds:neowise_diameters_albedos::2.0[mainbelt] (http://adsabs.harvard.edu/abs/2012ApJ...759L...8M)  

15301 Marutesser           Discovered 1992 Sept. 21 by L. D. Schmadel and F. Börngen at Tautenburg.
Marianne Ute Esser (b. 1943) has been a member of the scientific staff of the Astronomisches Rechen-Institut in Heidelberg for more than 30 years. As an editor of Astronomy and Astrophysics Abstracts she contributed to the worldwide reputation of this bibliography.
NOTE: some special characters may not display properly (any characters within {} are an attempt to place the proper accent above a character)
Reference: 20030806/MPCPages.arcLast Updated: 2003-10-02

Alternate Designations
 1992 SC2 = 1999 CA5 
Ephemeris | Orbit Diagram | Orbital Elements | Mission Design | Physical Parameters | Discovery Circumstances ]
ABOUT SSD CREDITS/AWARDS PRIVACY/COPYRIGHT GLOSSARY LINKS
FirstGov 2021-Aug-03 06:35 UT
(server date/time)  
NASA Home Page
Site Manager:   Ryan S. Park
Webmaster  Alan B. Chamberlin